Weather Roundup
Issued by NWS

Home | Current Version | Previous Version | Text Only | Print | Product List | Glossary On
Versions: 1 2 3 4 5 6 7 8 9 10 11 12 13 14 15 16 17 18 19 20 21 22 23 24 25 26 27 28 29 30 31 32 33 34 35 36 37 38 39 40 41 42 43 44 45 46 47 48 49 50
270
NZUS93 KARX 252259
HRRWXR

CURRENT HOURLY OBSERVATIONS ACROSS
MUCH OF THE UPPER MISSISSIPPI VALLEY
NATIONAL WEATHER SERVICE LA CROSSE WI
500 PM CST SAT FEB 25 2017


...SOUTHEAST MINNESOTA...


CITY           SKY/WX    TMP DP  RH WIND       PRES   REMARKS
ROCHESTER      MOCLDY    20  14  77 SW13      29.93S WCI   7
ROCHESTER/MAYO MOCLDY    24  16  70 SW9G17    29.94S WCI  15
WINONA         CLEAR     30  16  55 SW9       29.96S WCI  22
AUSTIN         CLEAR     21  12  68 SW10      29.95F WCI  10
ALBERT LEA     CLEAR     23  16  74 SW10      29.94F WCI  12
DODGE CENTER   NOT AVBL
PRESTON        CLEAR     21  13  70 W10       29.95S WCI  10
OWATONNA       CLOUDY    23  16  74 S13       29.92F WCI  11
FARIBAULT      CLOUDY    25  18  74 S10G16    29.93S WCI  15
$$

...ELSEWHERE IN MINNESOTA...


CITY           SKY/WX    TMP DP  RH WIND       PRES   REMARKS
MINNEAPOLIS    CLOUDY    32  17  54 W9        29.89S WCI  24
INTNL FALLS    FLURRIES  21  15  78 SW6       29.70F WCI  13
DULUTH         PTCLDY    26  15  63 W16       29.75S WCI  14
RED WING       CLOUDY    28  16  59 SW12G17   29.91R WCI  18
REDWOOD FALLS  MOCLDY    31  18  58 SW17      29.87F WCI  19
MANKATO        NOT AVBL
WORTHINGTON    CLOUDY    26  17  68 S18       29.88F WCI  13
FAIRMONT       CLOUDY    25  18  74 SW12      29.93F WCI  14
$$

...SOUTHWEST WISCONSIN...


CITY           SKY/WX    TMP DP  RH WIND       PRES   REMARKS
LA CROSSE      CLEAR     28  10  46 W9        29.96S WCI  19
PRAIRIE DU CHI CLEAR     26  11  53 W10       29.99S WCI  17
BOSCOBEL       CLEAR     28  10  46 W10       29.98R WCI  19
LONE ROCK      NOT AVBL
PLATTEVILLE    CLEAR     26  16  66 W9        29.97R WCI  16
FORT MC COY    CLEAR     26  11  52 W9        29.94S WCI  17
MAUSTON-NEW LI CLEAR     25  11  54 W9        29.91R WCI  15
VIROQUA        FAIR      24  10  56 W7        29.92S WCI  16
WIS DELLS      CLEAR     24   9  53 W8        29.92R WCI  15
$$

...ELSEWHERE IN WISCONSIN...


CITY           SKY/WX    TMP DP  RH WIND       PRES   REMARKS
MILWAUKEE      MOCLDY    24  12  60 W14G23    29.92R WCI  12
MADISON        MOCLDY    24  11  57 W7        29.93R WCI  16
GREEN BAY      CLEAR     22  11  62 W13       29.87R WCI  10
EAU CLAIRE     NOT AVBL
BLACK RVR FLS  FAIR      26   8  46 W6        29.92S WCI  19
MEDFORD        CLEAR     23   6  48 W8        29.81R WCI  14
WAUSAU         CLEAR     23   7  50 W12       29.81S WCI  12
WIS RAPIDS     CLEAR     25   8  48 W10       29.88S WCI  15
MARSHFIELD     CLEAR     22   6  50 W10       29.85R WCI  11
RICE LAKE      CLEAR     29  11  47 CALM      29.86S
$$

...NORTHEAST IOWA...


CITY           SKY/WX    TMP DP  RH WIND       PRES   REMARKS
WATERLOO       CLEAR     25  16  68 W13       30.02F WCI  14
DUBUQUE        CLEAR     25  16  68 W12       29.98R WCI  14
DECORAH        CLEAR     23  12  63 W8G16     29.97R WCI  14
MASON CITY     CLOUDY    21  13  71 SW12      29.98F WCI   9
CHARLES CITY   CLEAR     23  14  68 W12G18    29.99S WCI  12
OELWEIN        CLEAR     25  16  68 W9        30.00F WCI  15
$$

...ELSEWHERE IN IOWA...


CITY           SKY/WX    TMP DP  RH WIND       PRES   REMARKS
DES MOINES     PTSUNNY   32  18  56 SW9       30.03F WCI  24
IOWA CITY      PTCLDY    31  14  49 W12       30.06S WCI  22
FORT DODGE     CLOUDY    25  12  58 S13       30.00S WCI  13
MARSHALLTOWN   MOCLDY    27  18  69 SW8       30.02F WCI  19
CEDAR RAPIDS   CLEAR     27  17  66 W13       30.02S WCI  16
$$

...NORTHERN ILLINOIS...


CITY           SKY/WX    TMP DP  RH WIND       PRES   REMARKS
CHICAGO-OHARE  CLOUDY    27  14  58 W16       29.95R WCI  15
CHICAGO-MIDWAY MOCLDY    28  12  51 W18G25    29.96R WCI  15
MOLINE         CLEAR     31  17  56 W13G21    30.03R WCI  21
ROCKFORD       MOCLDY    27  14  58 NW14G21   29.98R WCI  16
PEORIA         PTCLDY    31  15  52 W13       30.04R WCI  21
$$

NOTE: "FAIR" INDICATES FEW OR NO CLOUDS BELOW 12,000 FEET WITH NO
SIGNIFICANT WEATHER AND/OR OBSTRUCTIONS TO VISIBILITY. WIND
SPEEDS ARE IN MILES-PER-HOUR.




USA.gov is the U.S. government's official web portal to all federal, state and local government web resources and services.